Leesburg, FL

7:44 PM EST on December 05, 2019 (GMT -0500)
Leesburg Regional

Weather History for KLEE - October, 2019

Change the Weather History Date:

Tuesday, October 8, 2019

  Actual Average Record
Temperature  
Mean Temperature 80 °F -  
Max Temperature 90 °F 85 °F 95 °F (1990)
Min Temperature 73 °F 65 °F 50 °F (1987)
Cooling Degree Days 15    
Growing Degree Days 30 (Base 50)    
Moisture  
Dew Point 72 °F    
Average Humidity 83    
Maximum Humidity 94    
Minimum Humidity 59    
Precipitation  
Precipitation 0.00 in - - ()
Sea Level Pressure  
Sea Level Pressure 29.89 in    
Wind  
Wind Speed 7 mph (NNE)    
Max Wind Speed 15 mph    
Max Gust Speed 20 mph    
Visibility 10 miles    
Events      
Averages and records for this station are not official NWS values.
T = Trace of Precipitation, MM = Missing Value Source: NWS Daily Summary

Daily Weather History Graph

Daily Weather History Graph

Search for Another Location

Airport or City:

Astronomy

Oct. 08, 2019 Rise Set
Actual Time 7:24 AM EDT 7:05 PM EDT
Civil Twilight 7:00 AM EDT 7:28 PM EDT
Nautical Twilight 6:32 AM EDT 7:56 PM EDT
Astronomical Twilight 6:05 AM EDT 8:23 PM EDT
Moon 4:34 PM EDT (10/8) 2:43 AM EDT (10/8)
Length of Visible Light 12h 28m
Length of Day
11h 41m
Waxing Gibbous, 77% of the Moon is Illuminated
Oct 8
Waxing Gibbous
Oct 13
Full
Oct 21
Last Quarter
Oct 27
New
Nov 4
First Quarter

Hourly Weather History & Observations

Time (EDT) Temp. Heat Index Dew Point Humidity Pressure Visibility Wind Dir Wind Speed Gust Speed Precip Events Conditions
12:16 AM 75.0 °F - 72.0 °F 90% 29.89 in 10.0 mi NNE 6.9 mph - N/A   Scattered Clouds
12:53 AM 75.0 °F - 72.0 °F 90% 29.89 in 10.0 mi NNE 4.6 mph - N/A   Mostly Cloudy
1:53 AM 75.9 °F - 73.0 °F 91% 29.87 in 10.0 mi NE 6.9 mph - N/A   Overcast
2:02 AM 75.9 °F - 73.0 °F 91% 29.87 in 10.0 mi ENE 9.2 mph - N/A   Overcast
2:12 AM 75.9 °F - 72.0 °F 87% 29.87 in 10.0 mi ENE 9.2 mph - N/A   Overcast
2:17 AM 75.9 °F - 71.1 °F 85% 29.87 in 10.0 mi East 10.4 mph - N/A   Overcast
2:30 AM 75.0 °F - 71.1 °F 87% 29.86 in 10.0 mi East 9.2 mph - N/A   Overcast
2:53 AM 75.0 °F - 71.1 °F 87% 29.85 in 10.0 mi ENE 5.8 mph - N/A   Scattered Clouds
3:45 AM 75.0 °F - 72.0 °F 90% 29.84 in 10.0 mi Calm Calm - N/A   Mostly Cloudy
3:53 AM 73.9 °F - 71.1 °F 91% 29.83 in 10.0 mi ENE 4.6 mph - N/A   Scattered Clouds
4:07 AM 73.9 °F - 71.1 °F 91% 29.84 in 10.0 mi North 4.6 mph - N/A   Mostly Cloudy
4:19 AM 75.0 °F - 71.1 °F 87% 29.84 in 10.0 mi Calm Calm - N/A   Scattered Clouds
4:53 AM 73.9 °F - 71.1 °F 91% 29.85 in 10.0 mi Calm Calm - N/A   Scattered Clouds
5:53 AM 73.9 °F - 71.1 °F 91% 29.86 in 10.0 mi Calm Calm - N/A   Mostly Cloudy
6:53 AM 75.0 °F - 73.0 °F 94% 29.87 in 10.0 mi NNW 4.6 mph - N/A   Overcast
7:50 AM 75.2 °F - 73.4 °F 94% 29.88 in 10.0 mi North 4.6 mph - N/A   Scattered Clouds
7:53 AM 75.9 °F - 73.0 °F 91% 29.88 in 10.0 mi North 4.6 mph - N/A   Scattered Clouds
8:53 AM 78.1 °F - 73.0 °F 84% 29.90 in 10.0 mi North 6.9 mph - N/A   Clear
9:03 AM 78.1 °F - 73.0 °F 84% 29.91 in 10.0 mi North 10.4 mph - N/A   Partly Cloudy
9:53 AM 79.0 °F - 73.0 °F 82% 29.93 in 10.0 mi North 6.9 mph - N/A   Overcast
10:08 AM 79.0 °F - 73.9 °F 84% 29.93 in 10.0 mi North 5.8 mph - N/A   Overcast
10:53 AM 82.0 °F 87.9 °F 73.9 °F 76% 29.93 in 10.0 mi North 8.1 mph - N/A   Mostly Cloudy
11:19 AM 84.0 °F 91.2 °F 73.9 °F 72% 29.93 in 10.0 mi North 8.1 mph - N/A   Mostly Cloudy
11:32 AM 82.9 °F 89.4 °F 73.9 °F 74% 29.93 in 10.0 mi NNE 8.1 mph - N/A   Mostly Cloudy
11:53 AM 84.0 °F 91.2 °F 73.9 °F 72% 29.92 in 10.0 mi NE 6.9 mph - N/A   Overcast
12:53 PM 87.1 °F 95.4 °F 73.9 °F 65% 29.91 in 10.0 mi NNE 11.5 mph - N/A   Scattered Clouds
1:53 PM 87.1 °F 92.8 °F 71.1 °F 59% 29.89 in 10.0 mi North 12.7 mph 19.6 mph N/A   Mostly Cloudy
2:53 PM 82.0 °F 85.5 °F 69.1 °F 65% 29.88 in 10.0 mi NNE 15.0 mph - N/A   Mostly Cloudy
3:53 PM 82.0 °F 86.3 °F 71.1 °F 69% 29.88 in 10.0 mi NE 12.7 mph - N/A   Overcast
4:53 PM 82.9 °F 88.0 °F 72.0 °F 69% 29.88 in 10.0 mi ENE 10.4 mph - 0.00 in   Overcast
5:53 PM 81.0 °F 85.8 °F 73.0 °F 77% 29.89 in 10.0 mi NNE 9.2 mph - N/A   Mostly Cloudy
6:53 PM 80.1 °F 83.6 °F 71.1 °F 74% 29.90 in 10.0 mi ENE 8.1 mph - N/A   Partly Cloudy
7:53 PM 79.0 °F - 73.0 °F 82% 29.92 in 10.0 mi North 4.6 mph - N/A   Mostly Cloudy
8:53 PM 79.0 °F - 73.0 °F 82% 29.94 in 10.0 mi NNE 4.6 mph - N/A   Overcast
9:53 PM 78.1 °F - 73.0 °F 84% 29.96 in 10.0 mi NE 4.6 mph - N/A   Overcast
10:53 PM 78.1 °F - 73.0 °F 84% 29.96 in 10.0 mi NNE 6.9 mph - N/A   Mostly Cloudy
11:53 PM 77.0 °F - 73.0 °F 88% 29.97 in 10.0 mi North 4.6 mph - N/A   Partly Cloudy